Peru, IN

4:54 AM EDT on April 24, 2018 (GMT -0400)
Grissom Air Reserve Base

Weather History for KGUS - March, 2012

Change the Weather History Date:

Saturday, March 3, 2012

  Actual Average Record
Temperature  
Mean Temperature 32 °F -  
Max Temperature 35 °F 39 °F 53 °F (2008)
Min Temperature 29 °F 25 °F 1 °F (2014)
Degree Days  
Heating Degree Days 33    
Moisture  
Dew Point 31 °F    
Average Humidity 97    
Maximum Humidity 100    
Minimum Humidity 86    
Precipitation  
Precipitation 0.00 in - - ()
Sea Level Pressure  
Sea Level Pressure 29.76 in    
Wind  
Wind Speed 22 mph (West)    
Max Wind Speed 26 mph    
Max Gust Speed 43 mph    
Visibility 9 miles    
Events Snow    
Averages and records for this station are not official NWS values.
T = Trace of Precipitation, MM = Missing Value Source: NWS Daily Summary

Daily Weather History Graph

Daily Weather History Graph

Search for Another Location

Airport or City:

Astronomy

Mar. 03, 2012 Rise Set
Actual Time 7:14 AM EST 6:38 PM EST
Civil Twilight 6:47 AM EST 7:06 PM EST
Nautical Twilight 6:15 AM EST 7:37 PM EST
Astronomical Twilight 5:43 AM EST 8:09 PM EST
Moon 1:47 PM EST (3/3) 3:52 AM EST (3/3)
Length of Visible Light 12h 18m
Length of Day
11h 24m
Waxing Gibbous, 75% of the Moon is Illuminated
Mar 3
Waxing Gibbous
Mar 8
Full
Mar 14
Last Quarter
Mar 22
New
Mar 30
First Quarter

Hourly Weather History & Observations

Time (EST) Temp. Windchill Dew Point Humidity Pressure Visibility Wind Dir Wind Speed Gust Speed Precip Events Conditions
12:01 AM 35.6 °F 23.2 °F 35.6 °F 100% 29.60 in 10.0 mi WNW 26.5 mph 42.6 mph N/A   Overcast
12:39 AM 35.6 °F 23.7 °F 35.6 °F 100% 29.61 in 10.0 mi WNW 24.2 mph 34.5 mph N/A   Overcast
12:55 AM 34.5 °F 22.0 °F 34.5 °F 100% 29.62 in 10.0 mi WNW 25.3 mph 33.4 mph N/A   Overcast
1:55 AM 34.3 °F 21.8 °F 34.3 °F 100% 29.63 in 10.0 mi WNW 25.3 mph 31.1 mph N/A   Overcast
2:55 AM 32.9 °F 20.1 °F 32.9 °F 100% 29.64 in 10.0 mi West 24.2 mph 31.1 mph N/A   Overcast
3:08 AM 32.0 °F 19.8 °F 32.0 °F 100% 29.64 in 10.0 mi West 20.7 mph 29.9 mph N/A   Overcast
3:11 AM 32.0 °F 19.5 °F 32.0 °F 100% 29.64 in 10.0 mi West 21.9 mph 32.2 mph N/A   Mostly Cloudy
3:17 AM 32.0 °F 19.5 °F 32.0 °F 100% 29.64 in 10.0 mi West 21.9 mph 32.2 mph N/A   Mostly Cloudy
3:55 AM 32.0 °F 19.5 °F 31.8 °F 99% 29.65 in 10.0 mi West 21.9 mph - N/A   Mostly Cloudy
4:55 AM 32.4 °F 19.7 °F 32.2 °F 99% 29.66 in 10.0 mi West 23.0 mph 29.9 mph N/A   Overcast
5:08 AM 32.0 °F 20.1 °F 32.0 °F 100% 29.66 in 10.0 mi West 19.6 mph 27.6 mph N/A   Overcast
5:26 AM 32.0 °F 18.4 °F 32.0 °F 100% 29.67 in 10.0 mi West 26.5 mph 32.2 mph N/A   Overcast
5:55 AM 31.6 °F 17.9 °F 30.0 °F 94% 29.67 in 10.0 mi WNW 26.5 mph 38.0 mph N/A   Overcast
6:10 AM 32.0 °F 18.9 °F 30.2 °F 93% 29.68 in 10.0 mi West 24.2 mph 32.2 mph N/A   Overcast
6:15 AM 32.0 °F 19.8 °F 30.2 °F 93% 29.68 in 10.0 mi West 20.7 mph 31.1 mph N/A   Overcast
6:55 AM 31.3 °F 18.2 °F 31.1 °F 99% 29.71 in 10.0 mi West 23.0 mph 31.1 mph N/A   Overcast
7:55 AM 31.5 °F 20.5 °F 30.7 °F 97% 29.73 in 10.0 mi West 16.1 mph 25.3 mph N/A   Overcast
8:55 AM 31.8 °F 19.9 °F 28.0 °F 86% 29.75 in 10.0 mi West 19.6 mph - N/A   Overcast
9:21 AM 32.0 °F 20.5 °F 32.0 °F 100% 29.73 in 10.0 mi West 18.4 mph - N/A Snow Light Snow
9:47 AM 32.0 °F 19.2 °F 30.2 °F 93% 29.77 in 10.0 mi West 23.0 mph 26.5 mph N/A   Overcast
9:55 AM 32.0 °F 19.2 °F 28.8 °F 88% 29.77 in 10.0 mi West 23.0 mph 31.1 mph 0.00 in   Overcast
10:24 AM 32.0 °F 19.5 °F 32.0 °F 100% 29.78 in 10.0 mi West 21.9 mph - N/A Snow Light Snow
10:31 AM 32.0 °F 20.1 °F 32.0 °F 100% 29.74 in 9.0 mi WSW 19.6 mph 27.6 mph N/A Snow Light Snow
10:55 AM 31.1 °F 19.7 °F 31.1 °F 100% 29.78 in 5.0 mi WSW 17.3 mph - 0.00 in Snow Light Snow
11:26 AM 32.0 °F 18.4 °F 32.0 °F 100% 29.78 in 10.0 mi West 26.5 mph 32.2 mph N/A   Overcast
12:55 PM 33.4 °F 20.8 °F 31.1 °F 91% 29.79 in 10.0 mi West 24.2 mph - 0.00 in   Overcast
1:36 PM 32.0 °F 18.9 °F 32.0 °F 100% 29.76 in 10.0 mi West 24.2 mph 32.2 mph N/A   Overcast
1:55 PM 32.4 °F 19.7 °F 32.2 °F 99% 29.78 in 10.0 mi West 23.0 mph 29.9 mph N/A   Overcast
2:55 PM 33.8 °F 21.6 °F 30.7 °F 89% 29.77 in 10.0 mi West 23.0 mph 28.8 mph N/A   Overcast
3:32 PM 33.8 °F 21.3 °F 32.0 °F 93% 29.78 in 10.0 mi West 24.2 mph 31.1 mph N/A Snow Light Snow
3:42 PM 33.8 °F 20.8 °F 32.0 °F 93% 29.78 in 10.0 mi West 26.5 mph 32.2 mph N/A   Overcast
3:55 PM 33.8 °F 21.6 °F 32.4 °F 94% 29.78 in 10.0 mi WSW 23.0 mph 32.2 mph 0.00 in   Overcast
4:13 PM 33.8 °F 21.0 °F 32.0 °F 93% 29.79 in 10.0 mi West 25.3 mph 28.8 mph N/A Snow Light Snow
4:50 PM 33.8 °F 22.2 °F 32.0 °F 93% 29.79 in 10.0 mi West 20.7 mph - N/A   Overcast
4:55 PM 33.1 °F 21.9 °F 32.9 °F 99% 29.79 in 10.0 mi West 18.4 mph - 0.00 in   Overcast
5:04 PM 33.8 °F 22.2 °F 32.0 °F 93% 29.79 in 10.0 mi West 20.7 mph 29.9 mph N/A Snow Light Snow
5:43 PM 32.0 °F 21.2 °F 32.0 °F 100% 29.81 in 10.0 mi West 16.1 mph 24.2 mph N/A   Overcast
5:55 PM 32.4 °F 20.9 °F 32.0 °F 99% 29.82 in 10.0 mi West 18.4 mph - 0.00 in   Overcast
5:57 PM 32.0 °F 20.8 °F 32.0 °F 100% 29.82 in 10.0 mi West 17.3 mph 24.2 mph N/A Snow Light Snow
6:55 PM 32.4 °F 22.5 °F 30.7 °F 94% 29.84 in 10.0 mi West 13.8 mph - 0.00 in   Overcast
7:05 PM 32.0 °F 22.1 °F 32.0 °F 100% 29.84 in 10.0 mi West 13.8 mph - N/A Snow Light Snow
7:55 PM 31.5 °F 20.9 °F 31.3 °F 99% 29.85 in 10.0 mi West 15.0 mph - 0.00 in   Overcast
8:55 PM 31.1 °F 19.3 °F 29.1 °F 92% 29.85 in 10.0 mi West 18.4 mph - N/A   Overcast
9:48 PM 30.2 °F 17.8 °F 30.2 °F 100% 29.85 in 10.0 mi West 19.6 mph 23.0 mph N/A Snow Light Snow Showers
9:55 PM 30.9 °F 19.1 °F 30.6 °F 99% 29.85 in 10.0 mi West 18.4 mph - 0.00 in Snow Light Snow Showers
10:55 PM 30.4 °F 19.5 °F 30.2 °F 99% 29.85 in 10.0 mi West 15.0 mph - 0.00 in Snow Light Snow
11:07 PM 30.2 °F 18.9 °F 30.2 °F 100% 29.85 in 10.0 mi West 16.1 mph - N/A   Overcast
11:43 PM 30.2 °F 19.8 °F 30.2 °F 100% 29.85 in 6.0 mi West 13.8 mph - N/A Snow Light Snow
11:48 PM 30.2 °F 19.3 °F 30.2 °F 100% 29.85 in 4.0 mi West 15.0 mph - N/A Snow Light Snow
11:52 PM 30.2 °F 19.3 °F 30.2 °F 100% 29.85 in 4.0 mi West 15.0 mph - N/A Snow Light Snow
11:55 PM 29.7 °F 18.6 °F 29.7 °F 100% 29.85 in 4.0 mi West 15.0 mph - 0.00 in Snow Light Snow
11:56 PM 30.2 °F 19.8 °F 30.2 °F 100% 29.86 in 5.0 mi West 13.8 mph - N/A Snow Light Snow